Regional Weather Roundup
Issued by NWS State College, PA

Home | Current Version | Previous Version | Graphics & Text | Print | Product List | Glossary Off
Versions: 1 2 3 4 5 6 7 8 9 10 11 12 13 14 15 16 17 18 19 20 21 22 23 24 25 26 27 28 29 30 31 32 33 34 35 36 37 38 39 40 41 42 43 44 45 46 47 48 49 50

000
ASUS41 KCTP 251610
RWRCTP

REGIONAL WEATHER ROUNDUP
NATIONAL WEATHER SERVICE STATE COLLEGE PA
1200 PM EDT THU MAY 25 2017

Note: "fair" indicates few or no clouds below 12,000 feet with no
significant weather and/or obstructions to visibility.

* = STATION THAT DOES NOT REPORT PRECIPITATION /E.G. RAIN...SNOW...ETC/
    THUNDER OR FOG.

PAZ002>004-007>009-013>016-020>023-029>032-251700-
WESTERN PENNSYLVANIA

CITY           SKY/WX    TMP DP  RH WIND       PRES   REMARKS
ERIE           LGT RAIN  56  54  93 NE8       29.48F FOG
MEADVILLE      LGT RAIN  56  55  97 CALM      29.48S FOG
FRANKLIN*      CLOUDY    55  52  88 SE7       29.49S
NEW CASTLE     LGT RAIN  59  58  96 VRB3      29.48S
BEAVER COUNTY  LGT RAIN  57  57 100 S6        29.48S
BUTLER*        CLOUDY    59  55  88 SW5       29.49S
PITTSBURGH INT CLOUDY    61  57  87 SW8       29.48R
PITTSBURGH     CLOUDY    58  54  86 S7        29.49S
INDIANA*       CLOUDY    59  57  94 SW8       29.53R FOG
LATROBE        LGT RAIN  59  59 100 SW12      29.52F
WASHINGTON CO* CLOUDY    61  54  77 SW8       29.51S
$$

PAZ004>006-010>012-017>019-024>028-033>037-041-042-045-046-049>053-251700-
CENTRAL PENNSYLVANIA

CITY           SKY/WX    TMP DP  RH WIND       PRES   REMARKS
BRADFORD       LGT RAIN  54  54 100 SE12      29.51S FOG
DUBOIS         CLOUDY    56  52  86 VRB7      29.50S FOG
CLEARFIELD     CLOUDY    57  55  93 S6        29.53R
JOHNSTOWN      CLOUDY    58  53  84 S9        29.51F
ALTOONA        CLOUDY    58  56  93 E6        29.53S
STATE COLLEGE  PTSUNNY   57  54  88 CALM      29.53S
WILLIAMSPORT   LGT RAIN  60  57  89 E9        29.51F FOG
SELINSGROVE    CLOUDY    58  57  97 CALM      29.53F FOG
FT INDIANTOWN  DRIZZLE   57  57 100 NE3       29.53S FOG
CAPITAL CITY   LGT RAIN  60  56  86 E6        29.53S FOG
HARRISBURG     LGT RAIN  59  58  96 E3        29.52S FOG
YORK           LGT RAIN  60  59  96 VRB3      29.52S FOG
$$

PAZ038>040-043-044-047-048-054-055-060>062-067>071-251700-
EASTERN PENNSYLVANIA

CITY           SKY/WX    TMP DP  RH WIND       PRES   REMARKS
SCRANTON       LGT RAIN  59  56  89 NE12      29.54F FOG
MOUNT POCONO   LGT RAIN  52  52 100 E15G21    29.59F FOG
ALLENTOWN      LGT RAIN  59  55  87 E12G22    29.55F
QUAKERTOWN*    CLOUDY    55  55 100 E9G18     29.56F
READING        CLOUDY    59  58  96 E9        29.52S
LANCASTER      LGT RAIN  60  59  96 E9        29.51F
COATESVILLE    CLOUDY    57  57 100 E14       29.54F FOG
POTTSTOWN      LGT RAIN  56  56 100 E6        29.56S FOG
BLUE BELL      CLOUDY    55  55 100 E9        29.56F
DOYLESTOWN     LGT RAIN  56  56 100 VRB3      29.55F FOG
WILLOW GROVE   NOT AVBL
NORTH PHILA    CLOUDY    59  57  93 E12       29.57F
PHILADELPHIA   DRIZZLE   60  57  89 E12       29.55S FOG
$$



USA.gov is the U.S. government's official web portal to all federal, state and local government web resources and services.